DECAYED

ELECTRON R/B, 68099 (Decayed)

Orbit data source: Space-Track

ELECTRON R/B, 68099 was space debris in LEO originally from a launch on Thu, 05 Mar 2026 UTC launched from the Rocket Lab Launch Complex (RLLC). Debris objects in space refer to the collection of defunct objects orbiting the Earth. Examples of debris include non-operational satellites, rocket bodies, and fragments generated from explosions, collisions, or faulty payload assembly.

Not visible in the next 10 days
Identifier
68099, 2026-043B
Orbit
Decayed
Country
Flag of USUS
Related business
Manufacturer
Rocket Lab
Mission
Decayed spacecraft
Bus & Motor
KICK STAGE, CURIE
Mass
40 kg wet, ~40 kg dry
Launch date (UTC)
2026-03-05 (1 month ago)
Launch vehicle
Unknown
Launch site
Rocket Lab Launch Complex (RLLC)
Object type
Payload
Rocket body
Debris
Shape & HBR
Unknown
Radar Cross Section
RCS unknown

Expand to show TLE details & history
Last TLE update: 1 month ago

TLE from 1 month ago
0 ELECTRON R/B
1 68099U 26043B   26072.01391444  .12248352  90084-5  58475-3 0  9995
2 68099  42.0046  51.9802 0052977 313.8573  45.7931 16.35030976  1128
Epoch: 2026-03-13T00:20Z
TLE epoch observation values (Epoch: 2026-03-13T00:20:02.207Z)
Latitude
0.00001°
Longitude
-123.68452°
Altitude
154.581 km
Speed
7.83 km/s
True Right ascension
03h 27m 55s
True Declination
0° 00' 00"
Sunlit
Object was in daylight at epoch
Visualization orbit readout
Latitude
Unknown
Longitude
Unknown
Altitude
Unknown
Speed
Unknown
Apparent Right ascension
Unknown
Apparent Declination
Unknown
Sunlit
N/A
Visualization observer readout
Local Sidereal Time
19:47:56
Azimuth
Unknown
Elevation
Unknown
Doppler factor
Unknown
Orbital elements
Apogee altitude
216.014 km
Perigee altitude
146.514 km
Semi-major axis
6,559.401 km
Eccentricity
0.0053
Inclination
42.0046°
RAAN
51.9802°
Arg. of periapsis
313.8573°
True anomaly
46.23028°
Mean anomaly
45.7931°
Eccentric anomaly
46.01149°
Mean motion
4.08552 °/min
Orbital period
88.12 mins
BSTAR
0.00058475
Loading maneuver chart data...
Computing Atmospheric mass density...
Loading historical data...
Loading historical data...
Loading historical data...
Loading historical data...
Loading historical data...
Loading historical data...
Loading historical data...
Other satellites on launch #43 in the year 2026 (2026-03-05 UTC)

Documentation

Showing up to 5 results
|